CST,Max TemperatureF,Mean TemperatureF,Min TemperatureF,Max Dew PointF,MeanDew PointF,Min DewpointF,Max Humidity, Mean Humidity, Min Humidity, Max Sea Level PressureIn, Mean Sea Level PressureIn, Min Sea Level PressureIn, Max VisibilityMiles, Mean VisibilityMiles, Min VisibilityMiles, Max Wind SpeedMPH, Mean Wind SpeedMPH, Max Gust SpeedMPH,PrecipitationIn, CloudCover, Events, WindDirDegrees
2012-12-1,75,66,57,63,58,52,88,75,57,30.18,30.12,30.06,10,10,10,15,8,24,0.00,4,,153
2012-12-2,77,70,64,64,60,57,88,76,53,30.21,30.13,30.09,10,10,7,16,9,22,0.00,4,,168
2012-12-3,71,66,62,64,63,61,94,86,73,30.11,30.07,30.01,10,9,2,16,8,24,0.00,6,,150
2012-12-4,71,66,62,66,61,54,94,82,64,30.21,30.12,30.08,10,9,4,10,6,16,0.00,6,,178
2012-12-5,64,58,51,55,51,48,94,79,63,30.27,30.18,30.09,10,9,4,7,3,,0.00,8,,11
2012-12-6,59,54,50,52,50,46,94,88,72,30.09,29.99,29.93,10,7,0,9,3,,0.00,6,,135
2012-12-7,69,60,51,61,55,50,94,86,68,29.95,29.90,29.84,10,6,0,15,4,18,0.00,6,,171
2012-12-8,75,66,57,64,61,55,94,85,57,29.93,29.88,29.83,10,6,0,12,4,,0.00,5,,167
2012-12-9,73,62,51,64,60,45,94,81,69,29.94,29.86,29.79,10,9,3,18,9,25,0.14,6,,193
2012-12-10,51,42,32,43,28,21,93,62,49,30.14,30.05,29.90,10,10,7,21,12,26,0.04,3,,310
2012-12-11,50,38,26,28,23,14,93,66,27,30.28,30.20,30.12,10,10,10,7,2,,0.00,0,,356
2012-12-12,51,37,23,30,22,9,93,65,18,30.39,30.32,30.27,10,10,10,8,1,,0.00,0,,60
2012-12-13,60,43,26,32,25,18,93,67,20,30.39,30.33,30.26,10,10,10,8,1,,0.00,0,,141
2012-12-14,57,44,32,52,37,28,93,72,41,30.27,30.15,29.97,10,10,7,10,2,18,0.04,5,,128
2012-12-15,71,63,55,63,53,39,94,71,31,29.97,29.91,29.86,10,9,3,13,7,20,0.11,6,,184
2012-12-16,64,58,51,59,54,50,94,87,73,29.87,29.81,29.74,10,9,1,7,1,,0.00,4,,178
2012-12-17,62,50,35,54,43,34,94,77,36,29.93,29.84,29.76,10,7,0,15,5,25,0.01,2,,243
2012-12-18,75,54,32,50,38,32,100,63,22,29.92,29.88,29.82,10,9,4,13,3,21,0.00,0,,176
2012-12-19,75,63,51,64,59,48,94,80,65,29.88,29.78,29.66,10,10,10,21,8,29,0.00,4,,156
2012-12-20,69,,69,59,59,59,68,68,68,,,,,,,,,,0.00,,,-1
2012-12-21,60,46,32,30,18,3,87,42,10,30.49,30.38,30.34,10,10,10,10,3,,0.00,0,,258
2012-12-22,64,45,26,43,28,19,93,55,19,30.37,30.26,30.12,10,10,10,14,3,22,0.00,0,,167
2012-12-23,69,60,51,59,51,43,88,70,56,30.12,29.96,29.84,10,10,10,16,7,22,0.00,5,,178
2012-12-24,62,50,37,43,36,30,87,62,42,30.01,29.91,29.85,10,10,10,12,4,,0.00,0,,296
2012-12-25,51,42,32,50,41,30,100,90,81,30.01,29.74,29.57,10,6,1,20,8,29,2.04,7,,358
2012-12-26,32,30,28,30,26,23,93,82,69,30.25,30.17,30.01,10,10,7,18,11,25,0.00,8,,295
2012-12-27,44,35,26,37,31,23,93,80,61,30.18,30.08,29.95,10,8,2,8,2,,0.23,5,,88
2012-12-28,42,38,35,41,36,30,93,88,81,30.18,29.96,29.86,10,6,2,17,6,25,0.25,8,,322
2012-12-29,44,35,26,28,23,18,93,65,34,30.48,30.36,30.18,10,10,10,15,7,23,0.00,0,,304
2012-12-30,44,34,23,30,25,21,93,67,39,30.52,30.43,30.31,10,10,10,9,2,,0.00,0,,107
2012-12-31,51,44,37,50,41,28,94,80,61,30.30,30.12,29.98,10,7,1,10,4,,0.97,8,,123